Hourly Weather Alicun

Today, 2 March, Tuesday

Time Temperature Precipitation Wind Pressure Humidity
00:00 +7°C° 0 mm 2 mps 699 mmHg 85%
01:00 +7°C° 0 mm 2 mps 698 mmHg 86%
02:00 +8°C° 0 mm 1 mps 698 mmHg 87%
03:00 +7°C° 0 mm 1 mps 698 mmHg 87%
04:00 +7°C° 0 mm 1 mps 698 mmHg 87%
05:00 +7°C° 0 mm 1 mps 698 mmHg 87%
06:00 +6°C° 0 mm 1 mps 699 mmHg 87%
07:00 +8°C° 0 mm 1 mps 699 mmHg 80%
08:00 +10°C° 0 mm 1 mps 700 mmHg 73%
09:00 +11°C° 0 mm 1 mps 701 mmHg 67%
10:00 +13°C° 0 mm 2 mps 701 mmHg 62%
11:00 +13°C° 0 mm 3 mps 701 mmHg 57%
12:00 +16°C° 0 mm 3 mps 702 mmHg 53%
13:00 +17°C° 0.1 mm 4 mps 701 mmHg 50%
14:00 +17°C° 0.1 mm 4 mps 701 mmHg 48%
15:00 +17°C° 0.1 mm 5 mps 701 mmHg 45%
16:00 +16°C° 0.1 mm 5 mps 701 mmHg 49%
17:00 +14°C° 0.1 mm 4 mps 701 mmHg 52%
18:00 +13°C° 0.1 mm 4 mps 701 mmHg 56%
19:00 +12°C° 0 mm 3 mps 701 mmHg 61%
20:00 +11°C° 0 mm 3 mps 702 mmHg 67%
21:00 +10°C° 0 mm 3 mps 702 mmHg 72%
22:00 +10°C° 0 mm 3 mps 702 mmHg 75%
23:00 +9°C° 0 mm 2 mps 702 mmHg 78%

Tomorrow, 3 March, Wednesday

Time Temperature Precipitation Wind Pressure Humidity
00:00 +9°C° 0 mm 2 mps 703 mmHg 81%
01:00 +9°C° 0 mm 2 mps 702 mmHg 82%
02:00 +8°C° 0 mm 2 mps 702 mmHg 82%
03:00 +8°C° 0 mm 2 mps 702 mmHg 83%
04:00 +9°C° 0 mm 1 mps 702 mmHg 83%
05:00 +8°C° 0 mm 1 mps 702 mmHg 83%
06:00 +8°C° 0 mm 1 mps 702 mmHg 83%
07:00 +10°C° 0 mm 1 mps 702 mmHg 76%
08:00 +10°C° 0 mm 2 mps 703 mmHg 68%
09:00 +13°C° 0 mm 2 mps 703 mmHg 61%
10:00 +14°C° 0 mm 3 mps 703 mmHg 55%
11:00 +15°C° 0 mm 4 mps 704 mmHg 49%
12:00 +18°C° 0 mm 4 mps 704 mmHg 44%
13:00 +17°C° 0 mm 5 mps 703 mmHg 42%
14:00 +17°C° 0 mm 5 mps 703 mmHg 41%
15:00 +17°C° 0 mm 5 mps 702 mmHg 40%
16:00 +17°C° 0 mm 4 mps 702 mmHg 45%
17:00 +15°C° 0 mm 4 mps 702 mmHg 50%
18:00 +13°C° 0 mm 3 mps 701 mmHg 56%
19:00 +12°C° 0 mm 3 mps 701 mmHg 63%
20:00 +12°C° 0 mm 2 mps 702 mmHg 69%
21:00 +10°C° 0 mm 2 mps 702 mmHg 76%
22:00 +9°C° 0 mm 2 mps 701 mmHg 79%
23:00 +9°C° 0 mm 2 mps 701 mmHg 82%

Day after tomorrow, 4 March, Thursday

Time Temperature Precipitation Wind Pressure Humidity
00:00 +8°C° 0 mm 2 mps 701 mmHg 84%
01:00 +8°C° 0 mm 2 mps 700 mmHg 85%
02:00 +7°C° 0 mm 2 mps 700 mmHg 85%
03:00 +7°C° 0 mm 2 mps 699 mmHg 85%
04:00 +6°C° 0 mm 2 mps 699 mmHg 85%
05:00 +6°C° 0 mm 2 mps 698 mmHg 86%
06:00 +5°C° 0 mm 2 mps 698 mmHg 86%
07:00 +7°C° 0 mm 2 mps 698 mmHg 78%
08:00 +8°C° 0 mm 2 mps 699 mmHg 70%
09:00 +9°C° 0 mm 3 mps 699 mmHg 62%
10:00 +11°C° 0 mm 3 mps 699 mmHg 54%
11:00 +12°C° 0 mm 4 mps 699 mmHg 47%
12:00 +14°C° 0 mm 4 mps 698 mmHg 39%
13:00 +14°C° 0 mm 4 mps 698 mmHg 39%
14:00 +14°C° 0 mm 5 mps 697 mmHg 39%
15:00 +15°C° 0 mm 5 mps 697 mmHg 38%
16:00 +13°C° 0 mm 5 mps 696 mmHg 44%
17:00 +12°C° 0 mm 4 mps 696 mmHg 51%
18:00 +11°C° 0 mm 4 mps 696 mmHg 57%
19:00 +10°C° 0 mm 4 mps 696 mmHg 63%
20:00 +9°C° 0 mm 3 mps 696 mmHg 69%
21:00 +8°C° 0 mm 3 mps 696 mmHg 75%
22:00 +8°C° 0 mm 3 mps 696 mmHg 78%
23:00 +7°C° 0 mm 2 mps 696 mmHg 80%

5 March, Friday

Time Temperature Precipitation Wind Pressure Humidity
00:00 +7°C° 0 mm 2 mps 696 mmHg 83%
01:00 +7°C° 0 mm 2 mps 695 mmHg 84%
02:00 +6°C° 0 mm 2 mps 695 mmHg 85%
03:00 +6°C° 0 mm 2 mps 695 mmHg 86%
04:00 +6°C° 0 mm 2 mps 694 mmHg 87%
05:00 +6°C° 0 mm 2 mps 694 mmHg 88%
06:00 +5°C° 0 mm 2 mps 694 mmHg 89%
07:00 +6°C° 0 mm 2 mps 694 mmHg 84%
08:00 +7°C° 0 mm 2 mps 695 mmHg 78%
09:00 +8°C° 0 mm 3 mps 695 mmHg 73%
10:00 +10°C° 0 mm 3 mps 695 mmHg 66%
11:00 +11°C° 0 mm 4 mps 695 mmHg 58%
12:00 +12°C° 0 mm 4 mps 695 mmHg 51%
13:00 +13°C° 0 mm 4 mps 695 mmHg 50%
14:00 +13°C° 0 mm 5 mps 695 mmHg 48%
15:00 +13°C° 0 mm 5 mps 694 mmHg 47%
16:00 +12°C° 0.1 mm 5 mps 694 mmHg 54%
17:00 +11°C° 0.1 mm 4 mps 694 mmHg 61%
18:00 +10°C° 0.1 mm 3 mps 694 mmHg 68%
19:00 +10°C° 0 mm 3 mps 695 mmHg 70%
20:00 +10°C° 0 mm 3 mps 695 mmHg 72%
21:00 +9°C° 0 mm 3 mps 696 mmHg 74%
22:00 +9°C° 0 mm 2 mps 695 mmHg 77%
23:00 +8°C° 0 mm 2 mps 695 mmHg 81%

6 March, Saturday

Time Temperature Precipitation Wind Pressure Humidity
00:00 +7°C° 0 mm 2 mps 695 mmHg 85%
01:00 +7°C° 0 mm 2 mps 695 mmHg 86%
02:00 +6°C° 0 mm 2 mps 695 mmHg 86%
03:00 +7°C° 0 mm 1 mps 695 mmHg 87%
04:00 +6°C° 0 mm 1 mps 695 mmHg 86%
05:00 +5°C° 0 mm 2 mps 695 mmHg 86%
06:00 +5°C° 0 mm 2 mps 695 mmHg 85%
07:00 +6°C° 0 mm 2 mps 696 mmHg 80%
08:00 +8°C° 0 mm 2 mps 696 mmHg 75%
09:00 +9°C° 0 mm 3 mps 697 mmHg 70%
10:00 +10°C° 0 mm 3 mps 697 mmHg 69%
11:00 +10°C° 0 mm 3 mps 697 mmHg 68%
12:00 +11°C° 0 mm 3 mps 697 mmHg 67%
13:00 +11°C° 0.2 mm 4 mps 696 mmHg 68%
14:00 +11°C° 0.2 mm 4 mps 696 mmHg 69%
15:00 +11°C° 0.2 mm 4 mps 696 mmHg 70%
16:00 +11°C° 0.2 mm 3 mps 696 mmHg 74%
17:00 +10°C° 0.2 mm 3 mps 696 mmHg 78%
18:00 +9°C° 0.2 mm 2 mps 696 mmHg 82%
19:00 +9°C° 0 mm 2 mps 696 mmHg 83%
20:00 +9°C° 0 mm 2 mps 697 mmHg 84%
21:00 +9°C° 0 mm 1 mps 697 mmHg 84%
22:00 +9°C° 0.1 mm 1 mps 697 mmHg 86%
23:00 +9°C° 0.1 mm 1 mps 697 mmHg 87%

7 March, Sunday

Time Temperature Precipitation Wind Pressure Humidity
00:00 +9°C° 0.1 mm 1 mps 697 mmHg 88%
01:00 +9°C° 0.1 mm 1 mps 697 mmHg 89%
02:00 +8°C° 0.1 mm 0 mps 697 mmHg 90%
03:00 +7°C° 0.1 mm 0 mps 696 mmHg 91%
04:00 +7°C° 0.1 mm 0 mps 696 mmHg 91%
05:00 +7°C° 0.1 mm 0 mps 696 mmHg 91%
06:00 +7°C° 0.1 mm 0 mps 696 mmHg 91%
07:00 +8°C° 0 mm 0 mps 697 mmHg 88%
08:00 +8°C° 0 mm 0 mps 697 mmHg 85%
09:00 +9°C° 0 mm 0 mps 697 mmHg 81%
10:00 +11°C° 0.2 mm 1 mps 697 mmHg 76%
11:00 +12°C° 0.2 mm 1 mps 698 mmHg 71%
12:00 +13°C° 0.2 mm 1 mps 698 mmHg 66%
13:00 +13°C° 0.5 mm 1 mps 697 mmHg 63%
14:00 +14°C° 0.5 mm 2 mps 697 mmHg 61%
15:00 +14°C° 0.5 mm 2 mps 697 mmHg 58%
16:00 +13°C° 0.7 mm 2 mps 697 mmHg 63%
17:00 +13°C° 0.7 mm 2 mps 697 mmHg 68%
18:00 +12°C° 0.7 mm 2 mps 696 mmHg 74%
19:00 +11°C° 0.2 mm 1 mps 697 mmHg 77%
20:00 +10°C° 0.2 mm 1 mps 697 mmHg 80%
21:00 +9°C° 0.2 mm 1 mps 697 mmHg 84%
22:00 +9°C° 0.1 mm 1 mps 697 mmHg 85%
23:00 +8°C° 0.1 mm 1 mps 697 mmHg 87%
Show more